Location: Bucquoy
(50.1391°N, 2.7097°E)
Time: 23:56:46
(UTC+00:00)

Cosmos 1356 Rocket - Pass Details

Date: 06 May 2021
Orbit: 543 x 598 km, 81.2° (Epoch: 21 June)

Event Time Altitude Azimuth Distance (km) Brightness Sun altitude
Rises 00:04:48 0° 352° (N) 2,818 8.3 -23.2°
Reaches altitude 10° 00:07:05 10° 359° (N) 1,922 7.2 -23.2°
Maximum altitude 00:11:10 45° 72° (ENE) 812 4.2 -23.1°
Enters shadow 00:11:55 41° 103° (ESE) 872 4.2 -23.1°
